カタログに戻る

DRISHTI

運用中科学SSO
NORAD 69010·PAYLOAD·🇺🇸 United States

打ち上げ May 3, 2026 から Vandenberg Space Force Base

Loading…

次のパス (今後24時間)

TLE

最新Source: Space-Track

元期: Sep 14, 2026, 15:32 UTC

1 69010U 26100AG  26257.64776452  .00001983  00000-0  92953-4 0  9991
2 69010  97.3911 153.8269 0007010  78.5628 281.6395 15.20818690 20406

AllMySatでDRISHTIをリアルタイム追跡

Download on the App Store